Terug naar catalogus

IRIDIUM 165

ActiefCommunicatiePO
NORAD 43572·PAYLOAD·🇺🇸 United States

Gelanceerd Jul 25, 2018 vanaf Vandenberg Space Force Base

Loading…

Volgende Passages (komende 24 uur)

TLE

VersSource: CelesTrak SupGP

Epoch: Sep 14, 2026, 21:41 UTC

1 43572C 18061D   26257.90381944 -.00001238  00000+0 -44261-3 0  2579
2 43572  86.4013  19.2827 0002151  94.3706  72.7236 14.34219521    12

Volg IRIDIUM 165 in realtime met AllMySat

Download on the App Store